Voltar ao catálogo

STARLINK-35383

AtivoComunicaçõesSSO
NORAD 65793·PAYLOAD·🇺🇸 United States

Lançado Sep 26, 2025 de Vandenberg Space Force Base

Loading…

Próximas Passagens (próximas 24 horas)

TLE

AtualizadoSource: CelesTrak SupGP

Época: Sep 15, 2026, 03:02 UTC

1 65793C 25218C   26258.12687500  .00007261  00000+0  22555-3 0  2585
2 65793  97.2849 115.5926 0001619  97.5949 169.5583 15.33414741    11

Acompanhe STARLINK-35383 em tempo real com AllMySat

Download on the App Store